| time (UTC) | temp F | wind direction | speed knots | gust knots | rain 1hr in | rain 24hr in | rain mn in | humidity % | barometer mb |
| 20260504000101 | 52 | 264 | 5.2 | 14.8 | 0.00 | 0.00 | 0.00 | 100 | 1014.1 |
| 20260503234624 | 52 | 17 | 4.3 | 16.5 | 0.00 | 0.00 | 0.00 | 100 | 1014.2 |
| 20260503233058 | 51 | 77 | 6.1 | 14.8 | 0.00 | 0.00 | 0.00 | 100 | 1014.2 |
| 20260503231552 | 52 | 116 | 5.2 | 15.6 | 0.00 | 0.00 | 0.00 | 100 | 1014.1 |
| 20260503230056 | 52 | 76 | 4.3 | 13.0 | 0.00 | 0.00 | 0.00 | 100 | 1014.0 |
| 20260503224553 | 51 | 151 | 7.0 | 17.4 | 0.00 | 0.00 | 0.00 | 100 | 1014.2 |
| 20260503223056 | 52 | 11 | 4.3 | 13.0 | 0.00 | 0.00 | 0.00 | 100 | 1014.3 |
| 20260503221606 | 52 | 211 | 3.5 | 18.2 | 0.00 | 0.00 | 0.00 | 100 | 1014.6 |
| 20260503220059 | 52 | 71 | 5.2 | 17.4 | 0.00 | 0.00 | 0.00 | 100 | 1014.5 |
| 20260503214556 | 52 | 207 | 5.2 | 18.2 | 0.00 | 0.00 | 0.00 | 100 | 1014.4 |
| 20260503213054 | 52 | 258 | 6.1 | 20.0 | 0.00 | 0.00 | 0.00 | 100 | 1014.4 |
| 20260503211555 | 52 | 96 | 6.1 | 16.5 | 0.00 | 0.00 | 0.00 | 100 | 1014.3 |
| 20260503210057 | 52 | 140 | 3.5 | 23.5 | 0.00 | 0.00 | 0.00 | 100 | 1014.5 |
| 20260503204557 | 52 | 115 | 5.2 | 17.4 | 0.00 | 0.00 | 0.00 | 100 | 1014.4 |
| 20260503203057 | 53 | 180 | 3.5 | 16.5 | 0.00 | 0.00 | 0.00 | 100 | 1014.4 |
| 20260503201553 | 53 | 148 | 3.5 | 16.5 | 0.00 | 0.00 | 0.00 | 100 | 1014.1 |
| 20260503200057 | 53 | 123 | 6.1 | 14.8 | 0.00 | 0.00 | 0.00 | 100 | 1014.3 |
| 20260503194600 | 53 | 136 | 5.2 | 13.0 | 0.00 | 0.00 | 0.00 | 100 | 1014.1 |
| 20260503193053 | 53 | 133 | 4.3 | 13.9 | 0.00 | 0.00 | 0.00 | 100 | 1014.0 |
| 20260503191555 | 53 | 72 | 3.5 | 13.9 | 0.00 | 0.00 | 0.00 | 100 | 1014.1 |
| 20260503190055 | 53 | 92 | 4.3 | 17.4 | 0.00 | 0.00 | 0.00 | 100 | 1014.1 |
| 20260503184557 | 53 | 182 | 4.3 | 17.4 | 0.00 | 0.00 | 0.00 | 100 | 1014.1 |
| 20260503183057 | 53 | 153 | 5.2 | 19.1 | 0.00 | 0.00 | 0.00 | 100 | 1014.1 |
| 20260503181555 | 53 | 148 | 5.2 | 16.5 | 0.00 | 0.00 | 0.00 | 100 | 1014.0 |
| 20260503174559 | 53 | 105 | 6.1 | 16.5 | 0.00 | 0.00 | 0.00 | 100 | 1014.2 |
| 20260503173100 | 53 | 66 | 6.1 | 16.5 | 0.00 | 0.00 | 0.00 | 100 | 1014.1 |
| 20260503171559 | 54 | 135 | 7.0 | 18.2 | 0.00 | 0.00 | 0.00 | 100 | 1014.3 |
| 20260503110109 | 57 | 114 | 4.3 | 14.8 | 0.00 | 0.00 | 0.00 | 100 | 1017.3 |
| 20260503081554 | 54 | 128 | 5.2 | 9.6 | 0.00 | 0.00 | 0.00 | 100 | 1017.0 |
| 20260503071611 | 54 | 158 | 2.6 | 13.0 | 0.00 | 0.00 | 0.00 | 100 | 1016.7 |
| 20260503060116 | 53 | 97 | 4.3 | 13.9 | 0.00 | 0.00 | 0.00 | 100 | 1016.3 |
| 20260503054600 | 53 | 178 | 6.1 | 14.8 | 0.00 | 0.00 | 0.00 | 100 | 1016.2 |
| 20260503053055 | 53 | 112 | 4.3 | 12.2 | 0.00 | 0.00 | 0.00 | 100 | 1016.0 |
| 20260503051555 | 53 | 156 | 5.2 | 13.9 | 0.00 | 0.00 | 0.00 | 100 | 1015.8 |
| 20260503050055 | 52 | 198 | 3.5 | 13.9 | 0.00 | 0.00 | 0.00 | 100 | 1015.6 |
| 20260503044554 | 53 | 163 | 3.5 | 17.4 | 0.00 | 0.00 | 0.00 | 100 | 1015.8 |
| 20260503043054 | 52 | 133 | 5.2 | 18.2 | 0.00 | 0.00 | 0.00 | 100 | 1015.6 |
| 20260503041554 | 52 | 255 | 5.2 | 14.8 | 0.00 | 0.00 | 0.00 | 100 | 1015.7 |
| 20260503040114 | 52 | 109 | 7.0 | 16.5 | 0.00 | 0.00 | 0.00 | 100 | 1015.6 |
| 20260503034556 | 52 | 231 | 4.3 | 14.8 | 0.00 | 0.00 | 0.00 | 100 | 1015.6 |
| 20260503033055 | 52 | 75 | 4.3 | 14.8 | 0.00 | 0.00 | 0.00 | 100 | 1015.4 |
| 20260503031605 | 53 | 207 | 7.0 | 17.4 | 0.00 | 0.00 | 0.00 | 100 | 1015.8 |
| 20260503030054 | 53 | 125 | 3.5 | 14.8 | 0.00 | 0.00 | 0.00 | 100 | 1015.9 |
| 20260503024557 | 53 | 202 | 5.2 | 14.8 | 0.00 | 0.00 | 0.00 | 100 | 1016.0 |
| 20260503023054 | 53 | 197 | 5.2 | 13.0 | 0.00 | 0.00 | 0.00 | 100 | 1016.1 |
| 20260503021555 | 53 | 160 | 6.1 | 18.2 | 0.00 | 0.00 | 0.00 | 100 | 1015.9 |
| 20260503020056 | 53 | 186 | 6.1 | 16.5 | 0.00 | 0.00 | 0.00 | 100 | 1016.4 |
| 20260503014608 | 53 | 221 | 4.3 | 13.0 | 0.00 | 0.00 | 0.00 | 100 | 1016.4 |
| 20260503013052 | 53 | 138 | 6.1 | 14.8 | 0.00 | 0.00 | 0.00 | 100 | 1016.1 |
| 20260503011600 | 53 | 72 | 7.8 | 18.2 | 0.00 | 0.00 | 0.00 | 100 | 1016.4 |
| 20260503010055 | 53 | 164 | 7.0 | 18.2 | 0.00 | 0.00 | 0.00 | 100 | 1016.7 |
| 20260503004559 | 53 | 36 | 4.3 | 16.5 | 0.00 | 0.00 | 0.00 | 100 | 1016.9 |
| 20260503003057 | 53 | 160 | 4.3 | 14.8 | 0.00 | 0.00 | 0.00 | 100 | 1017.0 |
| 20260503001606 | 53 | 122 | 6.1 | 13.9 | 0.00 | 0.00 | 0.00 | 100 | 1017.1 |